Regional Weather Roundup
Issued by NWS Cleveland, OH

Home | Current Version | Previous Version | Graphics & Text | Print | Product List | Glossary On
Versions: 1 2 3 4 5 6 7 8 9 10 11 12 13 14 15 16 17 18 19 20 21 22 23 24 25 26 27 28 29 30 31 32 33 34 35 36 37 38 39 40 41 42 43 44 45 46 47 48 49 50
000
ASUS41 KCLE 011600
RWRCLE
OHIO REGIONAL WEATHER ROUNDUP
NATIONAL WEATHER SERVICE WILMINGTON, OH
1200 PM EDT SAT AUG 01 2015

NOTE: "FAIR" INDICATES FEW OR NO CLOUDS BELOW 12,000 FEET WITH NO
SIGNIFICANT WEATHER AND/OR OBSTRUCTIONS TO VISIBILITY.

OHZ001>008-015>018-024>027-034-035-043-044-011700-
   NORTHWEST OHIO

CITY           SKY/WX    TMP DP  RH WIND       PRES   REMARKS
DEFIANCE       SUNNY     81  53  37 NW9       29.98S
FINDLAY        SUNNY     79  57  46 NW12      29.97S
TOLEDO EXPRESS SUNNY     79  56  45 W10       29.96S
TOLEDO EXEC    SUNNY     79  55  43 NW12      29.97R
LIMA           SUNNY     78  56  46 NW8       30.00R
$$

OHZ009>014-019>023-028>033-038-089-011700-
   NORTHEAST OHIO

CITY           SKY/WX    TMP DP  RH WIND       PRES   REMARKS
CLE-HOPKINS    MOSUNNY   78  60  53 W9        29.97R
CLE-LAKEFRONT  SUNNY     78  60  53 NW9       29.94R
CUY CO. ARPT   MOSUNNY   79  61  53 W12       29.96R
LORAIN-ELYRIA  SUNNY     76  59  55 VRB3      29.97R
ASHTABULA      SUNNY     77  54  44 NW13G21   29.95R
AKRON-CANTON   MOSUNNY   79  56  45 VRB6      29.97R
WOOSTER        NOT AVBL
MANSFIELD      SUNNY     78  56  46 VRB7      29.99R
YOUNGSTOWN     PTSUNNY   76  57  51 VRB5      29.95R
$$

OHZ042-051>053-060>062-070>072-077>081-011700-
  SOUTHWEST OHIO

CITY           SKY/WX    TMP DP  RH WIND       PRES   REMARKS
CINC-COVINGTON MOSUNNY   80  56  43 N9        30.03S
CINC-LUNKEN    SUNNY     81  54  39 CALM      30.02R
HAMILTON       SUNNY     82  58  43 N7        30.03R
DAYTON         NOT AVBL
WRIGHT-PAT AFB NOT AVBL
DAYTON GENERAL MOSUNNY   79  54  41 NW7       30.02R
WILMINGTON     SUNNY     78  55  44 NW9       30.02S
$$

OHZ036-037-039>041-045>050-054>059-063>069-073>076-082>088-011700-
  CENTRAL AND SOUTHEAST OHIO

CITY           SKY/WX    TMP DP  RH WIND       PRES   REMARKS
COLUMBUS       MOSUNNY   80  53  39 W12       29.98S
OSU AIRPORT    PTSUNNY   77  56  48 W8        29.99S
BOLTON FIELD   MOSUNNY   79  57  47 W6        30.01R
RICKENBACK AFB NOT AVBL
NEWARK         SUNNY     80  55  42 W7        29.99R
MARION         MOSUNNY   79  56  45 W13       29.99R
LANCASTER      SUNNY     79  55  43 VRB5      30.00S
ZANESVILLE     SUNNY     79  54  41 NW9       29.99R
NEW PHILLY     SUNNY     79  60  52 NW7       29.97S
$$


USA.gov is the U.S. government's official web portal to all federal, state and local government web resources and services.